RH
25 26 26 30 33 32 24 13 7 6 6 5 5 10 30 39 43 47 49 53 50 45 70 63 94 88 88 78 83 82 61 56 54 54 71 95 96 95 86 66 61 58 58 61 63 63 61 64 68
32 30 31 34 37 32 19 11 7 8 6 5 6 22 47 39 42 38 42 48 48 56 52 62 39 60 80 63 76 65 54 46 46 49 80 95 94 82 62 60 59 62 59 66 67 66 70 68 67
39 37 38 41 38 25 17 12 8 9 8 8 12 26 28 30 24 27 33 37 45 48 54 57 42 40 77 70 60 52 46 32 34 58 73 83 93 77 62 61 60 60 60 65 69 69 67 69 71
43 42 44 44 33 21 15 10 8 10 9 12 19 21 23 28 28 23 24 30 44 56 64 78 74 91 68 45 56 58 40 42 61 57 80 84 96 97 71 62 59 57 64 74 87 83 82 82 74
45 47 47 43 30 19 12 8 8 9 10 20 16 13 21 24 21 19 26 56 72 87 88 88 85 98 98 85 54 47 35 44 57 53 61 84 96 96 74 62 60 61 73 80 76 78 81 69 67
45 50 47 44 26 16 10 7 7 9 10 14 12 10 13 13 14 26 56 53 55 80 99 95 96 95 96 96 96 49 42 35 42 47 49 70 99 96 84 69 64 67 74 80 78 77 78 73 75
46 46 48 43 24 13 10 6 8 9 18 32 18 12 10 12 24 38 49 49 59 93 98 87 69 97 96 93 95 97 64 43 34 38 62 76 97 96 85 73 62 68 61 66 73 72 78 86 94
42 45 47 39 21 12 10 5 6 10 39 33 17 11 11 13 31 53 49 41 62 92 98 84 70 75 94 96 96 94 97 60 44 46 79 95 97 88 92 66 63 67 76 77 71 78 93 95 96
36 44 48 40 18 14 8 5 7 16 39 38 14 12 15 14 32 47 60 32 46 80 99 97 94 92 94 94 96 96 96 97 78 56 58 84 98 97 75 77 61 82 85 72 62 74 87 99 99
36 45 47 39 18 14 8 6 6 10 33 36 18 14 26 36 28 35 48 19 28 58 96 99 94 98 97 91 97 96 96 97 96 81 67 78 81 97 91 74 69 70 77 80 74 79 90 92 99
39 47 48 44 18 13 10 8 9 18 25 26 19 28 31 47 64 51 33 15 27 75 69 85 84 94 97 100 93 92 95 96 97 96 76 73 91 95 95 72 83 83 74 76 88 93 96 90 92
30 47 48 45 21 12 10 8 13 24 24 22 30 39 34 51 76 68 18 14 20 65 38 61 76 89 88 97 98 80 82 96 98 96 90 82 100 96 95 87 81 82 74 82 94 90 97 88 88
26 46 50 45 23 13 12 11 13 15 18 23 44 45 46 60 59 37 16 13 15 25 27 48 69 76 96 80 82 74 78 92 97 100 88 76 92 96 96 96 82 86 80 84 90 96 97 90 83
33 44 49 43 27 15 14 14 14 13 21 34 34 35 50 60 63 46 22 11 13 19 28 39 52 67 98 84 92 81 85 99 97 100 89 98 93 96 95 96 84 85 90 82 90 98 96 88 88
43 43 48 47 34 19 16 25 21 18 26 27 31 42 44 49 49 42 26 14 11 16 19 28 46 72 84 89 81 74 90 98 97 99 94 97 94 95 97 95 80 81 92 85 83 97 88 90 86
49 49 56 49 37 23 16 46 31 25 28 26 31 33 30 38 42 42 37 27 11 11 13 23 38 68 97 79 70 94 98 97 97 95 94 96 96 95 95 96 96 97 85 92 98 96 94 88 88
51 62 61 56 44 26 16 27 36 33 35 26 30 30 30 30 32 40 46 37 23 10 13 19 29 55 82 99 100 98 97 97 97 96 94 96 96 96 96 96 96 99 99 98 98 94 96 90 91
78 65 45 58 51 31 18 16 31 36 41 32 23 32 29 30 16 27 46 42 30 13 12 15 24 41 52 99 99 98 98 95 97 96 96 96 94 96 97 96 98 97 97 100 99 94 94 95 94
71 60 38 65 67 42 23 16 29 34 41 36 23 22 31 22 20 13 39 56 27 20 16 17 21 35 40 84 97 97 97 97 96 96 95 88 98 96 97 98 92 97 95 95 93 97 96 92 90
75 74 48 66 69 48 28 19 24 35 37 38 24 18 28 23 20 12 19 71 61 44 25 27 26 27 35 72 85 92 94 97 97 97 89 95 95 100 99 91 95 96 97 94 96 94 90 80 80
82 80 65 68 73 57 42 24 19 27 35 35 40 19 24 26 18 26 18 26 76 79 66 52 45 35 42 58 72 65 69 79 86 96 97 97 98 98 97 97 98 97 94 92 86 72 65 75 79
79 86 75 77 74 65 47 28 20 24 29 30 46 24 26 26 25 31 37 28 26 74 70 70 67 58 54 57 96 94 97 100 100 97 97 99 99 96 96 99 92 68 66 64 68 64 81 90 92
95 82 79 78 69 56 50 39 16 31 34 34 46 36 35 35 27 31 37 36 27 12 38 34 30 35 43 56 61 64 68 57 53 65 77 99 91 85 73 59 49 58 67 62 62 63 50 45 47
97 90 92 76 64 46 50 52 18 22 29 42 32 35 48 23 28 36 40 38 33 32 19 12 13 16 17 17 18 18 17 18 21 24 30 48 38 35 39 29 32 34 31 35 35 37 42 51 58
88 87 72 68 58 34 58 70 36 25 28 31 36 30 32 21 24 32 39 38 33 34 32 30 24 18 15 13 12 12 13 14 16 18 24 30 33 33 35 36 38 42 48 48 46 33 30 32 34
88 96 87 92 68 64 70 54 58 32 23 25 28 33 26 41 25 28 28 30 27 29 34 39 37 31 31 23 19 18 19 23 31 42 51 49 52 50 47 45 45 44 38 29 36 29 26 27 30
53 73 96 96 76 71 62 50 59 37 26 26 40 36 34 58 49 31 30 31 29 28 31 36 44 50 41 34 34 31 27 28 31 39 46 47 43 42 39 38 41 62 85 95 94 93 98 97 96
24 54 79 78 63 65 53 53 46 63 44 20 47 45 39 53 73 61 42 43 37 39 46 46 49 48 56 50 44 36 33 32 31 29 26 25 27 29 30 26 56 74 77 73 82 95 100 98 97
17 38 52 52 50 48 45 36 43 64 63 32 26 40 39 50 56 62 67 66 54 52 52 52 54 57 62 72 76 63 50 39 42 34 31 47 56 76 70 79 80 86 92 97 98 98 98 98 97
17 24 49 60 59 57 50 34 56 67 79 56 32 30 57 67 60 51 50 60 77 67 40 42 37 53 70 78 76 84 83 85 91 94 94 90 94 97 90 82 84 96 94 98 98 98 98 96 86
Wind_Speed
28 27 25 28 31 31 28 30 30 29 28 26 25 25 24 23 23 22 25 28 26 28 28 32 28 37 26 34 35 30 18 25 19 16 19 19 25 23 22 20 15 10 8 5 3 6 8 10 12
27 27 27 30 30 28 28 29 31 28 27 23 22 20 19 20 21 24 25 24 26 27 31 36 38 33 33 33 38 33 22 22 24 20 17 21 24 24 22 17 13 10 9 6 5 8 9 11 11
27 27 26 28 27 26 28 30 32 28 24 21 20 20 21 24 24 23 23 22 24 27 30 36 40 42 38 32 34 35 28 26 26 23 20 25 29 27 24 18 15 11 7 7 8 9 10 9 11
27 26 25 25 26 29 28 31 28 23 23 21 20 21 21 22 23 22 23 22 26 32 36 36 39 45 43 42 36 32 32 22 24 27 21 26 32 29 21 20 17 15 12 10 8 9 10 12 15
27 25 23 23 26 29 30 32 22 20 20 19 20 23 23 24 23 25 24 21 23 24 26 34 42 38 42 40 37 35 27 28 24 29 26 24 24 23 22 22 19 16 15 12 10 12 13 16 19
27 22 22 24 25 29 32 29 18 20 19 20 22 21 20 22 25 24 24 21 18 25 24 25 29 30 43 39 30 25 30 27 23 23 30 32 39 27 23 20 20 17 15 12 13 13 13 17 20
26 22 22 23 25 29 31 26 18 16 19 23 24 19 18 21 20 22 22 22 21 25 14 16 13 22 24 43 34 25 28 29 27 21 27 32 35 31 28 26 22 19 17 16 14 13 13 17 21
25 24 21 20 24 27 30 26 18 15 16 24 24 18 19 20 21 21 20 20 18 22 8 13 10 16 23 39 38 35 28 21 25 28 24 32 33 32 29 24 22 20 19 15 11 12 15 18 21
24 22 21 23 25 25 27 23 17 14 19 24 24 21 20 21 21 22 25 16 12 18 3 5 9 17 25 31 41 34 38 35 23 29 28 39 34 34 30 28 24 17 18 15 16 16 19 21 20
21 20 20 23 25 24 23 20 19 17 21 26 25 23 22 24 25 25 17 11 10 12 10 9 2 10 9 26 38 33 41 38 32 25 34 40 43 37 32 27 24 22 19 18 16 19 22 22 18
19 19 19 27 24 25 24 17 17 19 25 26 23 20 24 25 28 23 12 7 7 4 6 4 3 6 11 17 36 46 51 34 32 32 36 43 40 35 30 25 24 21 21 19 16 18 20 20 20
19 20 21 24 27 26 25 17 14 19 22 22 22 22 25 25 16 9 8 7 5 4 6 2 4 6 9 13 27 40 45 43 42 39 35 45 43 37 32 30 29 27 26 20 17 16 18 19 23
18 20 21 23 26 25 20 14 13 19 20 19 19 20 21 17 13 11 9 8 5 9 9 5 5 4 7 13 22 26 38 37 45 39 40 44 39 42 35 33 32 28 27 25 22 23 25 23 23
20 20 21 24 24 23 16 9 12 19 21 20 18 20 19 17 17 15 11 7 8 8 9 7 9 3 5 11 21 24 31 44 43 43 43 45 42 40 40 37 34 31 30 28 28 26 27 28 26
23 19 21 26 23 23 17 8 10 16 20 20 18 15 16 18 17 16 11 10 9 9 10 9 10 7 5 7 18 24 27 46 44 46 44 47 41 38 43 38 37 34 32 25 22 26 27 27 25
25 21 21 28 21 21 19 10 11 15 21 18 16 12 14 14 14 15 14 12 12 12 11 12 11 11 6 5 15 20 31 40 39 43 44 33 41 42 51 47 33 35 34 30 28 29 28 26 22
23 22 24 28 22 22 22 11 12 14 22 21 15 11 12 15 16 17 14 11 14 14 14 12 11 13 7 12 24 31 30 37 27 45 42 36 31 42 44 38 35 33 31 33 28 30 27 26 21
24 26 26 24 27 24 22 13 14 13 19 24 19 10 10 12 14 16 18 10 8 13 14 13 12 13 13 15 25 24 26 27 36 39 39 35 21 21 24 24 25 26 27 28 29 25 27 24 22
32 30 23 21 31 26 21 13 13 11 16 23 20 14 9 12 11 13 17 11 4 9 12 18 16 15 15 14 17 25 15 23 28 32 31 27 22 26 26 23 24 27 28 27 30 27 23 23 21
32 31 21 20 29 28 23 13 15 11 15 23 21 19 8 11 9 11 14 13 3 7 12 14 17 17 18 21 14 15 17 17 22 26 25 27 28 27 28 30 30 31 26 24 28 25 22 18 18
32 30 24 25 30 29 23 14 14 16 16 21 24 21 11 8 11 7 10 11 7 2 4 8 11 16 16 22 20 19 14 18 19 23 22 22 28 27 28 30 30 25 22 21 20 19 18 19 20
36 26 30 29 32 29 24 10 10 16 18 19 25 21 13 8 9 6 7 9 5 4 4 4 4 8 14 18 17 18 17 19 23 26 28 23 27 24 22 23 19 15 13 13 18 19 20 21 24
29 33 34 35 35 30 22 16 7 14 16 18 22 22 16 10 10 9 4 6 6 3 4 3 4 5 8 11 11 11 10 8 7 13 20 25 21 19 16 16 13 12 15 18 18 20 23 26 28
34 33 37 35 37 29 19 15 4 15 11 21 21 21 19 12 10 11 5 4 4 4 3 5 5 5 5 7 8 10 9 8 8 9 11 12 13 13 14 13 12 15 16 19 21 22 22 25 27
36 33 37 40 40 25 24 24 11 12 14 18 19 14 14 10 8 11 7 6 4 4 1 3 4 6 7 7 7 8 8 9 8 9 10 11 11 10 11 12 14 15 17 19 21 21 24 27 28
33 35 39 40 37 31 33 27 12 14 18 16 19 15 13 9 12 8 9 9 7 6 7 6 5 5 7 8 9 8 10 11 12 12 12 12 12 13 14 16 15 16 18 20 23 26 29 32 35
34 38 32 37 40 39 37 28 16 15 17 17 22 21 17 16 13 9 8 8 8 5 6 8 8 9 10 9 11 11 11 13 13 14 14 13 15 15 15 16 17 18 21 22 27 30 32 31 35
39 38 38 42 41 40 37 32 22 15 15 18 22 24 21 20 17 15 14 14 14 14 14 15 15 12 12 10 11 13 15 16 15 15 15 15 16 16 16 19 19 21 22 26 29 35 43 42 45
42 43 42 43 42 41 40 38 24 19 22 20 25 26 27 25 24 17 19 18 20 18 20 21 20 20 16 14 14 14 16 17 17 17 17 18 18 17 18 20 23 25 28 36 43 38 42 46 32
42 44 45 48 45 45 42 41 30 21 17 23 21 30 27 28 31 29 22 20 17 18 16 15 19 23 21 20 19 19 18 20 24 25 26 24 23 23 21 21 23 26 28 38 38 44 33 30 26
Wind_Direction
305 306 309 309 309 311 313 314 313 302 296 301 300 301 294 300 300 289 275 270 269 253 240 241 240 238 244 239 231 236 232 230 247 245 244 232 193 196 193 186 187 188 190 207 234 259 258 269 283
309 310 309 309 306 309 311 313 306 300 299 301 299 294 278 284 280 283 278 272 272 264 251 243 248 254 240 242 243 251 245 246 245 245 240 213 192 189 193 183 190 184 191 207 242 250 260 263 270
313 309 309 307 306 308 308 311 315 307 300 298 293 287 278 272 277 275 274 273 275 269 262 253 251 245 238 236 241 242 248 244 246 237 240 235 228 194 192 186 188 188 192 220 238 244 249 261 268
314 310 308 302 304 305 311 313 321 302 295 294 294 286 278 273 273 279 280 280 272 267 265 256 247 235 237 242 236 239 250 241 238 228 235 228 200 196 183 186 191 196 189 197 211 237 255 250 250
313 310 305 303 304 304 312 321 317 296 295 298 295 285 271 276 288 293 288 291 287 287 265 257 261 234 215 228 235 236 229 231 242 231 240 235 199 186 186 196 198 201 199 213 225 246 261 264 263
312 308 303 303 302 308 316 321 309 302 309 305 296 290 289 286 291 297 295 299 301 300 293 278 258 247 211 201 217 225 229 232 234 233 228 220 209 191 198 202 205 206 205 214 232 249 250 259 263
315 305 300 301 303 311 317 321 311 312 318 312 303 296 287 286 293 293 302 305 310 309 307 270 262 225 209 209 217 215 230 219 224 235 221 212 186 188 203 207 212 219 220 220 232 246 255 259 263
315 305 297 297 300 309 319 326 321 318 312 306 299 296 291 289 291 289 303 298 310 316 317 259 249 212 217 206 209 232 224 211 227 216 217 195 183 189 197 207 217 222 219 230 243 254 262 268 270
311 304 295 297 302 311 321 331 323 314 312 303 298 295 296 288 285 294 301 303 316 322 82 252 234 233 232 218 214 227 224 224 217 211 212 206 200 199 199 209 216 223 225 236 248 257 261 264 283
308 304 293 297 304 311 323 333 323 313 304 295 303 299 300 301 295 289 289 307 313 306 104 128 165 184 205 231 214 235 234 201 235 217 203 203 208 205 201 206 218 220 227 237 243 257 266 266 276
300 298 293 297 300 315 329 332 319 316 294 297 300 295 304 305 306 293 273 315 295 250 107 145 164 211 232 216 216 219 216 221 216 225 211 211 201 196 204 210 216 222 231 240 246 254 259 261 265
291 290 288 293 301 313 327 337 322 309 296 296 308 310 310 307 303 268 270 288 267 251 280 248 210 241 256 232 215 206 203 217 223 225 215 212 200 207 205 209 218 223 232 236 236 247 262 272 265
283 290 284 284 294 306 326 338 314 298 297 308 314 326 313 302 296 275 268 274 270 240 249 207 160 220 241 227 207 198 206 202 203 206 202 197 204 199 215 213 219 224 232 231 234 256 266 274 277
276 284 283 282 288 303 322 331 312 303 304 308 320 327 313 308 295 291 278 264 265 249 240 227 200 196 184 226 194 205 209 208 206 207 201 208 206 212 214 212 222 226 232 239 246 252 261 269 274
273 278 280 280 285 299 310 313 304 307 300 307 320 332 317 300 297 293 285 261 254 232 237 231 214 181 153 196 212 214 202 207 202 204 215 216 209 206 210 216 221 229 235 244 260 251 263 271 271
270 275 278 277 284 294 305 298 310 301 295 306 316 344 333 316 327 318 305 274 237 234 222 217 217 210 138 153 155 178 193 196 209 203 212 210 221 218 224 225 234 234 236 246 256 257 265 265 260
268 272 267 272 284 294 300 286 283 293 290 303 305 334 337 330 347 345 339 286 236 224 215 212 212 219 191 120 136 166 190 194 206 209 206 227 238 220 227 236 239 251 247 252 247 255 259 258 254
259 255 261 274 282 282 292 299 271 278 283 296 301 313 336 336 352 345 347 332 248 214 217 204 210 212 218 172 160 173 183 194 202 211 222 227 213 221 220 219 226 236 232 231 245 257 256 255 246
251 252 262 273 280 278 289 302 268 259 268 281 294 302 323 326 352 349 357 357 259 215 202 198 202 201 210 203 203 175 191 190 199 202 204 205 208 218 218 222 233 237 241 243 246 254 256 260 250
247 252 257 260 272 275 278 294 278 255 255 276 290 296 309 314 336 3 358 15 20 218 208 199 199 209 208 201 195 192 206 196 203 201 208 208 215 221 230 228 235 243 251 256 259 258 256 245 237
245 248 251 253 266 267 274 279 263 250 248 261 275 287 303 312 319 5 17 15 36 43 210 218 195 199 213 210 208 229 211 213 214 220 222 223 226 234 240 234 243 251 257 258 255 249 237 238 245
245 245 246 253 258 264 271 270 260 239 246 251 263 272 289 308 296 328 12 5 32 66 91 96 117 188 204 209 205 221 233 236 234 226 223 226 230 230 243 250 250 234 227 222 229 241 242 249 253
240 237 245 246 255 258 265 277 209 246 242 246 259 267 278 301 288 280 331 22 2 63 98 135 139 148 148 173 188 192 208 196 204 211 226 236 235 229 217 210 216 218 223 231 239 248 253 258 263
234 232 243 250 254 258 269 265 193 248 234 242 263 271 269 287 273 269 274 307 352 10 151 150 164 170 165 168 170 170 185 175 190 185 187 201 213 214 221 227 233 239 245 247 251 257 264 268 275
235 236 244 250 254 263 270 261 238 264 225 247 261 248 256 293 296 266 276 278 300 307 286 175 185 189 186 187 196 193 201 210 212 210 208 215 225 234 243 246 248 252 256 261 269 276 278 275 275
235 238 242 251 260 265 260 256 248 247 242 240 258 251 253 278 283 275 263 270 273 282 291 275 230 220 223 210 210 216 217 219 219 218 226 228 232 238 244 250 251 259 269 274 277 276 276 275 274
233 237 245 249 254 257 254 252 240 241 251 244 243 247 250 259 254 265 257 246 266 272 290 299 284 252 231 222 221 220 220 222 221 222 226 229 236 238 243 254 257 259 262 272 279 280 284 284 297
234 235 235 243 248 255 260 259 248 241 249 240 233 242 246 257 254 251 248 261 262 270 276 273 279 274 261 242 225 227 229 231 227 230 231 238 247 253 261 266 264 270 274 280 283 282 274 271 281
233 233 233 241 249 253 259 256 249 248 248 252 237 237 241 255 256 253 252 253 266 275 277 275 257 257 257 254 250 245 246 254 262 258 251 246 253 263 267 266 268 275 278 286 284 279 275 271 275
236 237 234 235 241 249 256 258 260 251 262 253 246 239 238 250 259 261 266 261 262 276 273 262 252 246 244 252 255 261 262 264 265 257 257 253 254 261 264 272 277 281 288 294 291 284 287 282 281